Find Yaogan 31 hao 01 zu 01 xing

NORAD ID: 43275 Int'l Des: 2018-034 Owner: ZLZB Country: CN Constellation: yaogan operational
LEO

Current View

Loading 3D Globe...

About Yaogan 31 hao 01 zu 01 xing

Description loading...

Upcoming Passes

Passes for default location (London). Set your location on the main map for personalized predictions.

Altitude History

Loading altitude history...

Two-Line Element Set

1 43275U 18034A 26151.19155211 -.00000105 00000-0 -19310-4 0 9993
2 43275 63.3919 135.0113 0273950 7.3489 353.1427 13.45459566399818
Epoch: May 31, 2026 • Age: 3 hours

Current Status

Altitude 915.0 km
Velocity 7.48 km/s
Sub-Earth Point -19.42°S, 114.74°E
Launch Date Apr 10, 2018
Age 8.1 years
Type military

Technical Details

Classification Payload
Mass 500.00 kg
Dry Mass 500.00 kg
Total Mass 500.00 kg
Length 0.50 m
Diameter 0.50 m
Span 1.00 m
Shape Box + 2 Pan
Manufacturer DFHZ
Bus Type JB-8B
Phase Status In Orbit
Owner/State ZLZB/CN

Most Searched